User: anonymous   Login
Location: Unspecified
(0.0000°N, 0.0000°E)
Time: 11:59:10
(UTC+00:00)
Language:

FLTSATCOM F7 - Orbit

View from above orbital plane
View from above orbital plane
View from above satellite
View from above satellite

Ground track
Ground track

The orbit data is extracted from the following two-line orbital elements,

1 17181U 86096A   16266.74107602 0.00000000  00000-0  00000-0 0    08
2 17181  14.7111   9.1749 0023795 159.0970 201.0142  1.00270000    02
Epoch (UTC): 22 September 2016 17:47:08
Eccentricity: 0.0023795
inclination: 14.7111°
perigee height: 35686 km
apogee height: 35887 km
right ascension of ascending node: 9.1749°
argument of perigee: 159.0970°
revolutions per day: 1.00270000
mean anomaly at epoch: 201.0142°
orbit number at epoch: 0

The dashed part of the orbit path shows where the satellite is in the earth's shadow,  

DLR